EZY46MD EGGD-LFPG

Flight info

Callsign EZY46MD
Flight time 0h 43m
Altitude 29000
Route HAWFA L607 YORQI DCT NUCHU L607 ALHAD UN859 VAPID L18 MID Y803 SFD/N0401F250 UM605 BIBAX
Aircraft A319/M-SDE3FGHIRWY/LB1

Departure

Time 2026-05-08 19:51
Airport Bristol Airport (EGGD)

Arrival

Time 2026-05-08 20:35
Airport Charles de Gaulle International Airport (LFPG)
Time Latitude Longitude Altitude Speed Heading
2026-05-08 19:38 51.38555 -2.71013 614 ft 0 kts 356°
2026-05-08 19:44 51.38537 -2.71011 618 ft 4 kts
2026-05-08 19:45 51.38510 -2.71015 625 ft 4 kts 12°
2026-05-08 19:45 51.38484 -2.71027 625 ft 4 kts 27°
2026-05-08 19:45 51.38463 -2.71052 623 ft 4 kts 63°
2026-05-08 19:45 51.38459 -2.71068 622 ft 0 kts 86°
2026-05-08 19:48 51.38460 -2.71052 621 ft 6 kts 86°
2026-05-08 19:48 51.38466 -2.70915 614 ft 14 kts 86°
2026-05-08 19:48 51.38472 -2.70746 613 ft 15 kts 87°
2026-05-08 19:48 51.38477 -2.70579 612 ft 14 kts 94°
2026-05-08 19:49 51.38463 -2.70534 621 ft 0 kts 134°
2026-05-08 19:49 51.38455 -2.70527 617 ft 5 kts 153°
2026-05-08 19:49 51.38365 -2.70491 613 ft 13 kts 175°
2026-05-08 19:50 51.38320 -2.70551 612 ft 0 kts 268°
2026-05-08 19:51 51.38320 -2.70566 612 ft 6 kts 268°
2026-05-08 19:51 51.38300 -2.71058 613 ft 85 kts 266°
2026-05-08 19:51 51.38245 -2.72394 648 ft 148 kts 266°
2026-05-08 19:51 51.38183 -2.74049 1226 ft 149 kts 265°
2026-05-08 19:52 51.38135 -2.75719 1861 ft 152 kts 264°
2026-05-08 19:52 51.38083 -2.77481 2315 ft 168 kts 264°
2026-05-08 19:52 51.38013 -2.79452 2734 ft 188 kts 264°
2026-05-08 19:52 51.37937 -2.81667 3112 ft 212 kts 265°
2026-05-08 19:53 51.37851 -2.84153 3580 ft 235 kts 265°
2026-05-08 19:53 51.37876 -2.86831 4382 ft 247 kts 282°
2026-05-08 19:53 51.38619 -2.89063 5230 ft 253 kts 314°
2026-05-08 19:53 51.40138 -2.90450 6193 ft 257 kts 348°
2026-05-08 19:54 51.41903 -2.90256 7112 ft 259 kts 23°
2026-05-08 19:54 51.43304 -2.88499 7995 ft 260 kts 58°
2026-05-08 19:54 51.43861 -2.85786 8886 ft 260 kts 89°
2026-05-08 19:54 51.43942 -2.82879 9843 ft 263 kts 91°
2026-05-08 19:55 51.44075 -2.79934 10681 ft 269 kts 80°
2026-05-08 19:55 51.44793 -2.77118 11490 ft 276 kts 66°
2026-05-08 19:55 51.45737 -2.74408 12264 ft 286 kts 53°
2026-05-08 19:55 51.47292 -2.72202 12571 ft 312 kts 36°
2026-05-08 19:56 51.49094 -2.70025 12855 ft 336 kts 39°
2026-05-08 19:56 51.50932 -2.67536 13286 ft 351 kts 46°
2026-05-08 19:56 51.52261 -2.64244 14009 ft 355 kts 69°
2026-05-08 19:56 51.52922 -2.60435 14700 ft 357 kts 83°
2026-05-08 19:57 51.53026 -2.56443 15381 ft 359 kts 96°
2026-05-08 19:57 51.52243 -2.43535 17532 ft 375 kts 98°
2026-05-08 19:57 51.51089 -2.26552 20024 ft 391 kts 98°
2026-05-08 19:57 51.49849 -2.08627 22493 ft 405 kts 99°
2026-05-08 19:58 51.48294 -1.98845 23452 ft 411 kts 119°
2026-05-08 19:58 51.47110 -1.94676 24082 ft 412 kts 115°
2026-05-08 19:58 51.46076 -1.90384 24594 ft 414 kts 112°
2026-05-08 19:58 51.45113 -1.86013 25057 ft 417 kts 111°
2026-05-08 19:59 51.44160 -1.81593 25505 ft 420 kts 111°
2026-05-08 19:59 51.43180 -1.77161 25932 ft 424 kts 112°
2026-05-08 19:59 51.42157 -1.72717 26351 ft 427 kts 113°
2026-05-08 19:59 51.41095 -1.68264 26762 ft 430 kts 113°
2026-05-08 20:00 51.40003 -1.63786 27187 ft 433 kts 114°
2026-05-08 20:00 51.38895 -1.59294 27604 ft 436 kts 114°
2026-05-08 20:00 51.37517 -1.53726 28094 ft 440 kts 114°
2026-05-08 20:00 51.35250 -1.44513 28900 ft 447 kts 113°
2026-05-08 20:01 51.32988 -1.35257 29072 ft 440 kts 113°
2026-05-08 20:01 51.30958 -1.26959 29091 ft 423 kts 113°
2026-05-08 20:01 51.26656 -1.09592 29085 ft 422 kts 114°
2026-05-08 20:02 51.23920 -1.01321 29086 ft 418 kts 129°
2026-05-08 20:02 51.20382 -0.93959 29076 ft 418 kts 129°
2026-05-08 20:02 51.13381 -0.79184 29086 ft 418 kts 129°
2026-05-08 20:03 51.06329 -0.64442 29106 ft 419 kts 129°
2026-05-08 20:03 51.00082 -0.48749 29083 ft 420 kts 123°
2026-05-08 20:04 50.93923 -0.33027 29053 ft 420 kts 123°
2026-05-08 20:04 50.87761 -0.17299 29064 ft 420 kts 123°
2026-05-08 20:05 50.81366 -0.01159 29100 ft 452 kts 123°
2026-05-08 20:05 50.79146 0.04409 29094 ft 467 kts 123°
2026-05-08 20:05 50.77398 0.08784 29094 ft 474 kts 125°
2026-05-08 20:06 50.72893 0.16296 29103 ft 472 kts 143°
2026-05-08 20:06 50.67780 0.22825 29104 ft 473 kts 143°
2026-05-08 20:07 50.62681 0.29331 29107 ft 469 kts 143°
2026-05-08 20:07 50.57614 0.35780 29106 ft 468 kts 143°
2026-05-08 20:08 50.52549 0.42214 29100 ft 468 kts 143°
2026-05-08 20:08 50.47480 0.48629 29093 ft 468 kts 143°
2026-05-08 20:09 50.42404 0.55036 29089 ft 468 kts 143°
2026-05-08 20:09 50.37320 0.61438 29085 ft 468 kts 142°
2026-05-08 20:10 50.32241 0.67816 29080 ft 469 kts 142°
2026-05-08 20:10 50.27149 0.74198 29076 ft 469 kts 142°
2026-05-08 20:11 50.22012 0.80612 27927 ft 481 kts 142°
2026-05-08 20:11 50.19381 0.83885 26844 ft 483 kts 142°
2026-05-08 20:11 50.16722 0.87195 26398 ft 483 kts 142°
2026-05-08 20:12 50.14128 0.90422 25847 ft 482 kts 142°
2026-05-08 20:12 50.11511 0.93674 25509 ft 465 kts 142°
2026-05-08 20:12 50.09033 0.96750 25385 ft 446 kts 142°
2026-05-08 20:12 50.06659 0.99708 25256 ft 429 kts 142°
2026-05-08 20:13 50.04207 1.02144 25111 ft 412 kts 157°
2026-05-08 20:13 50.01547 1.03726 24594 ft 409 kts 161°
2026-05-08 20:13 49.98911 1.05333 24113 ft 406 kts 158°
2026-05-08 20:13 49.96316 1.07040 23633 ft 403 kts 156°
2026-05-08 20:14 49.93776 1.08829 23136 ft 400 kts 155°
2026-05-08 20:14 49.91279 1.10690 22664 ft 396 kts 154°
2026-05-08 20:14 49.88821 1.12583 22197 ft 392 kts 154°
2026-05-08 20:14 49.86398 1.14474 21734 ft 389 kts 153°
2026-05-08 20:15 49.83991 1.16348 21275 ft 385 kts 154°
2026-05-08 20:15 49.81603 1.18195 20832 ft 382 kts 154°
2026-05-08 20:15 49.79235 1.20010 20391 ft 378 kts 154°
2026-05-08 20:15 49.76887 1.21797 19910 ft 373 kts 154°
2026-05-08 20:16 49.74576 1.23549 19352 ft 368 kts 154°
2026-05-08 20:16 49.72287 1.25285 18775 ft 364 kts 154°
2026-05-08 20:16 49.70008 1.27010 18062 ft 364 kts 154°
2026-05-08 20:16 49.67745 1.28721 17383 ft 361 kts 154°
2026-05-08 20:17 49.65494 1.30424 16731 ft 358 kts 154°
2026-05-08 20:17 49.63281 1.32099 16294 ft 353 kts 154°
2026-05-08 20:17 49.61050 1.33789 15895 ft 351 kts 154°
2026-05-08 20:17 49.58861 1.35445 15488 ft 350 kts 154°
2026-05-08 20:18 49.56685 1.37089 15092 ft 348 kts 154°
2026-05-08 20:18 49.54512 1.38721 14696 ft 346 kts 155°
2026-05-08 20:18 49.52349 1.40340 14300 ft 345 kts 155°
2026-05-08 20:18 49.50195 1.41956 13907 ft 344 kts 154°
2026-05-08 20:19 49.48056 1.43565 13485 ft 342 kts 155°
2026-05-08 20:19 49.45921 1.45169 13096 ft 340 kts 155°
2026-05-08 20:19 49.43796 1.46760 12711 ft 339 kts 154°
2026-05-08 20:19 49.41683 1.48333 12331 ft 337 kts 155°
2026-05-08 20:20 49.39571 1.49898 11932 ft 336 kts 154°
2026-05-08 20:20 49.37479 1.51458 11555 ft 334 kts 154°
2026-05-08 20:20 49.35412 1.53003 11330 ft 324 kts 154°
2026-05-08 20:20 49.33425 1.54487 11210 ft 313 kts 154°
2026-05-08 20:21 49.31439 1.55994 11004 ft 320 kts 154°
2026-05-08 20:21 49.29477 1.57480 10853 ft 309 kts 154°
2026-05-08 20:21 49.27586 1.58907 10703 ft 298 kts 154°
2026-05-08 20:21 49.25737 1.60300 10418 ft 294 kts 154°
2026-05-08 20:22 49.23907 1.61671 10083 ft 292 kts 154°
2026-05-08 20:22 49.22697 1.62573 9840 ft 291 kts 154°
2026-05-08 20:22 49.20863 1.63934 9461 ft 289 kts 154°
2026-05-08 20:22 49.19057 1.65280 9195 ft 288 kts 154°
2026-05-08 20:23 49.17265 1.66621 8928 ft 286 kts 154°
2026-05-08 20:23 49.15482 1.67960 8670 ft 285 kts 154°
2026-05-08 20:23 49.13710 1.69294 8414 ft 283 kts 154°
2026-05-08 20:23 49.11952 1.70622 8160 ft 281 kts 154°
2026-05-08 20:24 49.10203 1.71945 7904 ft 280 kts 154°
2026-05-08 20:24 49.08459 1.73267 7654 ft 278 kts 154°
2026-05-08 20:24 49.06733 1.74579 7401 ft 277 kts 154°
2026-05-08 20:24 49.05054 1.76004 7165 ft 276 kts 141°
2026-05-08 20:25 49.03883 1.78276 7065 ft 276 kts 116°
2026-05-08 20:25 49.03140 1.80910 7080 ft 277 kts 112°
2026-05-08 20:25 49.02427 1.83630 7078 ft 277 kts 112°
2026-05-08 20:25 49.01728 1.86334 7080 ft 274 kts 112°
2026-05-08 20:26 49.01037 1.89026 7068 ft 268 kts 112°
2026-05-08 20:26 49.00378 1.91608 6945 ft 255 kts 112°
2026-05-08 20:26 48.99754 1.94073 6780 ft 245 kts 112°
2026-05-08 20:26 48.99149 1.96482 6493 ft 242 kts 112°
2026-05-08 20:27 48.98553 1.98862 6159 ft 240 kts 112°
2026-05-08 20:27 48.97957 2.01218 5839 ft 237 kts 112°
2026-05-08 20:27 48.97362 2.03547 5514 ft 235 kts 112°
2026-05-08 20:27 48.96771 2.05851 5203 ft 232 kts 110°
2026-05-08 20:28 48.96582 2.08283 5014 ft 231 kts 85°
2026-05-08 20:28 48.96731 2.10721 5005 ft 232 kts 85°
2026-05-08 20:28 48.96871 2.13166 5006 ft 232 kts 85°
2026-05-08 20:28 48.97010 2.15589 5008 ft 232 kts 85°
2026-05-08 20:29 48.97152 2.18071 5007 ft 232 kts 85°
2026-05-08 20:29 48.97292 2.20515 5011 ft 232 kts 85°
2026-05-08 20:29 48.97428 2.22917 5002 ft 222 kts 86°
2026-05-08 20:29 48.97557 2.25182 4932 ft 211 kts 86°
2026-05-08 20:30 48.97684 2.27441 4429 ft 215 kts 85°
2026-05-08 20:30 48.97810 2.29670 3903 ft 204 kts 85°
2026-05-08 20:30 48.97927 2.31747 3591 ft 191 kts 85°
2026-05-08 20:30 48.98036 2.33709 3328 ft 181 kts 85°
2026-05-08 20:31 48.98140 2.35560 3092 ft 171 kts 85°
2026-05-08 20:31 48.98237 2.37319 2865 ft 162 kts 85°
2026-05-08 20:31 48.98330 2.38991 2653 ft 155 kts 85°
2026-05-08 20:31 48.98418 2.40581 2452 ft 147 kts 85°
2026-05-08 20:32 48.98502 2.42097 2263 ft 143 kts 84°
2026-05-08 20:32 48.98585 2.43609 2073 ft 144 kts 84°
2026-05-08 20:32 48.98668 2.45120 1881 ft 141 kts 84°
2026-05-08 20:32 48.98745 2.46529 1692 ft 128 kts 84°
2026-05-08 20:33 48.98818 2.47862 1516 ft 125 kts 84°
2026-05-08 20:33 48.98890 2.49173 1351 ft 125 kts 84°
2026-05-08 20:33 48.98961 2.50479 1178 ft 124 kts 84°
2026-05-08 20:33 48.99033 2.51805 1010 ft 127 kts 84°
2026-05-08 20:34 48.99106 2.53140 836 ft 127 kts 83°
2026-05-08 20:34 48.99179 2.54482 653 ft 128 kts 83°
2026-05-08 20:34 48.99326 2.57178 361 ft 125 kts 83°
2026-05-08 20:35 48.99390 2.58310 353 ft 86 kts 86°
2026-05-08 20:35 48.99421 2.58956 351 ft 43 kts 85°
2026-05-08 20:35 48.99496 2.59355 354 ft 33 kts 64°
2026-05-08 20:35 48.99575 2.59601 360 ft 21 kts 64°
2026-05-08 20:36 48.99694 2.59686 354 ft 20 kts 354°
2026-05-08 20:36 48.99832 2.59668 353 ft 20 kts 355°
2026-05-08 20:36 48.99939 2.59658 357 ft 11 kts 356°
2026-05-08 20:36 48.99986 2.59651 354 ft 3 kts 353°
2026-05-08 20:37 49.00016 2.59647 359 ft 6 kts 356°
2026-05-08 20:37 49.00078 2.59640 354 ft 10 kts 355°
2026-05-08 20:37 49.00170 2.59630 358 ft 17 kts 355°
2026-05-08 20:37 49.00297 2.59613 358 ft 14 kts 355°
2026-05-08 20:38 49.00404 2.59600 361 ft 13 kts 354°
2026-05-08 20:38 49.00491 2.59588 353 ft 12 kts 355°
2026-05-08 20:38 49.00576 2.59579 353 ft 13 kts 356°
2026-05-08 20:38 49.00681 2.59567 358 ft 17 kts 356°
2026-05-08 20:39 49.00811 2.59553 358 ft 20 kts 356°
2026-05-08 20:39 49.00937 2.59537 358 ft 16 kts 355°
2026-05-08 20:39 49.01004 2.59461 357 ft 12 kts 271°
2026-05-08 20:39 49.00997 2.59338 355 ft 11 kts 265°
2026-05-08 20:40 49.00991 2.59220 355 ft 11 kts 266°
2026-05-08 20:40 49.00985 2.59110 355 ft 10 kts 265°
2026-05-08 20:40 49.00964 2.58989 361 ft 14 kts 252°
2026-05-08 20:40 49.00948 2.58844 355 ft 13 kts 263°
2026-05-08 20:41 49.00940 2.58707 355 ft 15 kts 265°
2026-05-08 20:41 49.00933 2.58560 355 ft 13 kts 265°
2026-05-08 20:41 49.00924 2.58399 364 ft 18 kts 265°
2026-05-08 20:41 49.00913 2.58200 355 ft 19 kts 265°
2026-05-08 20:42 49.00901 2.57997 355 ft 21 kts 265°
2026-05-08 20:42 49.00890 2.57772 355 ft 21 kts 266°
2026-05-08 20:42 49.00879 2.57571 358 ft 18 kts 264°
2026-05-08 20:42 49.00869 2.57392 355 ft 17 kts 266°
2026-05-08 20:43 49.00860 2.57209 355 ft 19 kts 265°
2026-05-08 20:43 49.00848 2.57000 355 ft 19 kts 265°
2026-05-08 20:43 49.00840 2.56830 355 ft 14 kts 266°
2026-05-08 20:43 49.00832 2.56688 355 ft 14 kts 264°
2026-05-08 20:44 49.00821 2.56514 358 ft 16 kts 264°
2026-05-08 20:44 49.00765 2.56453 355 ft 10 kts 177°
2026-05-08 20:44 49.00681 2.56463 357 ft 15 kts 174°
2026-05-08 20:44 49.00627 2.56384 353 ft 12 kts 268°
2026-05-08 20:45 49.00620 2.56271 357 ft 10 kts 263°
2026-05-08 20:45 49.00615 2.56196 353 ft 11 kts 264°
2026-05-08 20:45 49.00598 2.56050 358 ft 10 kts 245°
2026-05-08 20:45 49.00566 2.56015 354 ft 5 kts 152°
2026-05-08 20:46 49.00528 2.56041 358 ft 7 kts 157°
2026-05-08 20:46 49.00506 2.56055 353 ft 0 kts 157°